Regional Weather Roundup
Issued by NWS State College, PA

Home | Current Version | Previous Version | Text Only | Print | Product List | Glossary On
Versions: 1 2 3 4 5 6 7 8 9 10 11 12 13 14 15 16 17 18 19 20 21 22 23 24 25 26 27 28 29 30 31 32 33 34 35 36 37 38 39 40 41 42 43 44 45 46 47 48 49 50
000
ASUS41 KCTP 300710
RWRCTP

REGIONAL WEATHER ROUNDUP
NATIONAL WEATHER SERVICE STATE COLLEGE PA
300 AM EDT MON MAY 30 2016

Note: "fair" indicates few or no clouds below 12,000 feet with no
significant weather and/or obstructions to visibility.

* = STATION THAT DOES NOT REPORT PRECIPITATION /E.G. RAIN...SNOW...ETC/
    THUNDER OR FOG.

PAZ002>004-007>009-013>016-020>023-029>032-300800-
WESTERN PENNSYLVANIA

CITY           SKY/WX    TMP DP  RH WIND       PRES   REMARKS
ERIE           CLEAR     70  58  65 S10       29.94F
MEADVILLE      MOCLDY    63  59  87 S7        30.00S
FRANKLIN*      PTCLDY    61  57  88 SW6       30.03S
NEW CASTLE     FAIR      63  61  93 CALM      30.01F
BEAVER COUNTY  NOT AVBL
BUTLER*        CLEAR    N/A N/A N/A CALM      30.04S
PITTSBURGH INT CLEAR     61  58  90 SE7       30.01F
PITTSBURGH     CLEAR     63  59  87 SE3       30.02F
INDIANA*       MOCLDY    59  59 100 SE5       30.07S FOG
LATROBE        FOG       59  59 100 CALM      30.04S VSB 1
WASHINGTON CO*   N/A     57  55  94 CALM      30.03S VSB 1/2
$$

PAZ004>006-010>012-017>019-024>028-033>037-041-042-045-046-049>053-300800-
CENTRAL PENNSYLVANIA

CITY           SKY/WX    TMP DP  RH WIND       PRES   REMARKS
BRADFORD       CLEAR     59  54  83 SE5       30.03F
DUBOIS         CLEAR     57  55  93 CALM      30.04F FOG
CLEARFIELD     FOG       59  57  93 NW5       30.05S VSB 1/4
JOHNSTOWN      CLOUDY    60  53  77 SW7       30.06F
ALTOONA        CLOUDY    61  58  90 CALM      30.05F
STATE COLLEGE  CLEAR     64  59  84 W6        30.03S
WILLIAMSPORT   CLOUDY    69  58  67 CALM      29.99F
SELINSGROVE    CLOUDY    67  62  84 SE3       30.01F
FT INDIANTOWN  LGT RAIN  64  64 100 CALM      30.02F FOG
CAPITAL CITY   LGT RAIN  65  60  84 CALM      30.03S
HARRISBURG     LGT RAIN  65  61  87 CALM      30.02F
YORK           CLOUDY    64  62  93 W3        30.03F
$$

PAZ038>040-043-044-047-048-054-055-060>062-067>071-300800-
EASTERN PENNSYLVANIA

CITY           SKY/WX    TMP DP  RH WIND       PRES   REMARKS
SCRANTON       RAIN      66  64  93 SW6       30.03F FOG
MOUNT POCONO   RAIN      60  32  34 CALM      30.05F
ALLENTOWN      LGT RAIN  70  67  90 SW5       30.01F
QUAKERTOWN*    CLOUDY    68  68 100 CALM      30.03S
READING        HVY RAIN  67  65  93 N3        30.00F FOG
LANCASTER      HVY RAIN  64  63  96 W7        30.02F FOG
COATESVILLE    FOG       68  68 100 CALM      30.03F VSB 1/2
POTTSTOWN      CLOUDY    67  67 100 CALM      30.02F
BLUE BELL      CLOUDY    66  66 100 CALM      30.01S
DOYLESTOWN     CLOUDY    66  66 100 CALM      30.01F
WILLOW GROVE   NOT AVBL
NORTH PHILA    HVY RAIN  68  66  93 NE3       30.01F FOG
PHILADELPHIA   HVY RAIN  70  68  93 NW6       30.01S VSB 1
$$




USA.gov is the U.S. government's official web portal to all federal, state and local government web resources and services.